Beaufort, NC

9:40 PM EST on December 06, 2019 (GMT -0500)
Smith

Weather History for KMRH - October, 2019

Change the Weather History Date:

Saturday, October 12, 2019

  Actual Average Record
Temperature  
Mean Temperature 63 °F -  
Max Temperature 77 °F 76 °F 88 °F (1990)
Min Temperature 51 °F 56 °F 43 °F (1992)
Degree Days  
Heating Degree Days 2    
Growing Degree Days 13 (Base 50)    
Moisture  
Dew Point 59 °F    
Average Humidity 77    
Maximum Humidity 100    
Minimum Humidity 59    
Precipitation  
Precipitation 0.00 in - - ()
Sea Level Pressure  
Sea Level Pressure 30.02 in    
Wind  
Wind Speed 4 mph (SSW)    
Max Wind Speed 10 mph    
Max Gust Speed -    
Visibility 10 miles    
Events      
Averages and records for this station are not official NWS values.
T = Trace of Precipitation, MM = Missing Value Source: NWS Daily Summary

Daily Weather History Graph

Daily Weather History Graph

Search for Another Location

Airport or City:

Astronomy

Oct. 12, 2019 Rise Set
Actual Time 7:09 AM EDT 6:36 PM EDT
Civil Twilight 6:44 AM EDT 7:01 PM EDT
Nautical Twilight 6:15 AM EDT 7:30 PM EDT
Astronomical Twilight 5:45 AM EDT 7:59 PM EDT
Moon 6:26 PM EDT (10/12) 5:51 AM EDT (10/12)
Length of Visible Light 12h 17m
Length of Day
11h 26m
Waxing Gibbous, 99% of the Moon is Illuminated
Oct 12
Waxing Gibbous
Oct 13
Full
Oct 21
Last Quarter
Oct 27
New
Nov 4
First Quarter

Hourly Weather History & Observations

Time (EDT) Temp. Dew Point Humidity Pressure Visibility Wind Dir Wind Speed Gust Speed Precip Events Conditions
12:58 AM 57.9 °F 55.0 °F 90% 30.04 in 10.0 mi NE 3.5 mph - N/A   Clear
1:58 AM 55.0 °F 53.1 °F 93% 30.04 in 10.0 mi Calm Calm - N/A   Clear
2:58 AM 54.0 °F 53.1 °F 97% 30.02 in 10.0 mi Calm Calm - N/A   Clear
3:58 AM 53.1 °F 52.0 °F 96% 30.01 in 10.0 mi Calm Calm - N/A   Clear
4:58 AM 53.1 °F 52.0 °F 96% 30.00 in 10.0 mi Calm Calm - N/A   Clear
5:58 AM 52.0 °F 51.1 °F 97% 30.01 in 10.0 mi Calm Calm - N/A   Clear
6:58 AM 51.1 °F 51.1 °F 100% 30.02 in 10.0 mi Calm Calm - N/A   Clear
7:58 AM 54.0 °F 54.0 °F 100% 30.04 in 10.0 mi Calm Calm - N/A   Clear
8:58 AM 64.9 °F 59.0 °F 81% 30.04 in 10.0 mi East 3.5 mph - N/A   Clear
9:58 AM 70.0 °F 59.0 °F 68% 30.05 in 10.0 mi Calm Calm - N/A   Clear
10:58 AM 73.0 °F 57.9 °F 59% 30.05 in 10.0 mi Calm Calm - N/A   Clear
11:58 AM 73.0 °F 60.1 °F 64% 30.04 in 10.0 mi Variable 4.6 mph - N/A   Clear
12:58 PM 73.9 °F 62.1 °F 66% 30.02 in 10.0 mi South 8.1 mph - N/A   Clear
1:58 PM 75.0 °F 63.0 °F 66% 30.01 in 10.0 mi SSW 8.1 mph - N/A   Clear
2:58 PM 75.9 °F 63.0 °F 64% 29.99 in 10.0 mi South 6.9 mph - N/A   Clear
3:58 PM 75.9 °F 61.0 °F 60% 29.99 in 10.0 mi SSW 10.4 mph - N/A   Clear
4:58 PM 75.9 °F 62.1 °F 62% 29.99 in 10.0 mi SSW 9.2 mph - N/A   Clear
5:58 PM 75.0 °F 63.0 °F 66% 29.99 in 10.0 mi SW 10.4 mph - N/A   Clear
6:58 PM 73.0 °F 64.0 °F 73% 30.00 in 10.0 mi SW 6.9 mph - N/A   Clear
7:58 PM 73.9 °F 64.0 °F 71% 30.02 in 10.0 mi SW 9.2 mph - N/A   Clear
8:58 PM 73.0 °F 64.0 °F 73% 30.03 in 10.0 mi SW 10.4 mph - N/A   Clear
9:58 PM 73.9 °F 62.1 °F 66% 30.04 in 10.0 mi WSW 10.4 mph - N/A   Clear
10:58 PM 73.0 °F 63.0 °F 71% 30.04 in 10.0 mi SW 9.2 mph - N/A   Clear
11:58 PM 73.0 °F 64.0 °F 73% 30.03 in 10.0 mi SW 9.2 mph - N/A   Clear